Regional Weather Roundup
Issued by NWS

Home | Current Version | Previous Version | Text Only | Print | Product List | Glossary On
Versions: 1 2 3 4 5 6 7 8 9 10 11 12 13 14 15 16 17 18 19 20 21 22 23 24 25 26 27 28 29 30 31 32 33 34 35 36 37 38 39 40 41 42 43 44 45 46 47 48 49 50
000
ASUS45 KPSR 030110
RWRAZ

ARIZONA HOURLY REGIONAL WEATHER ROUNDUP
NATIONAL WEATHER SERVICE PHOENIX AZ
600 PM MST SUN AUG 02 2015

NOTE: FAIR INDICATES FEW OR NO CLOUDS BELOW 12,000 FEET WITH NO
SIGNIFICANT WEATHER AND/OR OBSTRUCTIONS TO VISIBILITY.

AZZ001>003-036-030200-
NORTHWEST ARIZONA

CITY           SKY/WX    TMP DP  RH WIND       PRES   REMARKS
BULLHEAD CITY  SUNNY    108  46  12 S10G20    29.66F HX 103
KINGMAN        SUNNY     96  44  16 W14G23    29.91F
$$

AZZ004>008-015-016-018-030200-
NORTH CENTRAL ARIZONA

CITY           SKY/WX    TMP DP  RH WIND       PRES   REMARKS
GRAND CANYON   PTSUNNY   75  55  49 VRB3      30.18S
WILLIAMS       MOSUNNY   70  59  68 E5        30.25S
PRESCOTT       CLOUDY    87  47  24 W12       30.04F
FLAGSTAFF      CLOUDY    69  52  54 S3        30.22F
PAYSON         PTSUNNY   79  52  38 N13G22    30.09R
PAGE           PTSUNNY   80  61  52 N6        30.00F
$$

AZZ009>014-017-030200-
NORTHEAST ARIZONA

CITY           SKY/WX    TMP DP  RH WIND       PRES   REMARKS
WINSLOW        PTSUNNY   72  58  61 SW16G23   30.08S
SAINT JOHNS    MOSUNNY   84  49  29 W14       30.07F
SHOW LOW       SUNNY     77  48  36 SW9       30.17S
$$

AZZ023-030200-
GREATER PHOENIX AREA

CITY           SKY/WX    TMP DP  RH WIND       PRES   REMARKS
PHOENIX        MOSUNNY  108  46  12 W16G23    29.69F HX 104
GLENDALE       MOSUNNY  109  46  12 SW12G21   29.70F HX 105
DEER VALLEY    MOSUNNY  104  50  16 W10G20    29.71F HX 101
SCOTTSDALE     SUNNY    105  48  14 SW12      29.74F HX 101
MESA-FALCON    MOSUNNY  106  48  14 SW14      29.72F HX 102
MESA-GATEWAY   MOSUNNY  102  52  18 SW3       29.75F HX 100
CHANDLER       MOSUNNY  106  50  15 SW6       29.72F HX 103
$$

AZZ027-028-030200-
SOUTHWEST MARICOPA COUNTY AND PINAL COUNTY

CITY           SKY/WX    TMP DP  RH WIND       PRES   REMARKS
CASA GRANDE    SUNNY    104  48  15 W12       29.74S HX 100
GILA BEND      FAIR     107  45  12 W12       29.68F HX 103
$$

AZZ503-504-507>509-030200-
SOUTHEAST ARIZONA

CITY           SKY/WX    TMP DP  RH WIND       PRES   REMARKS
TUCSON         MOSUNNY   99  51  19 NE3       29.85F
DAVIS-MONTHAN  SUNNY     97  53  22 SW3       29.84F
NOGALES        MOSUNNY   92  56  29 N9        29.96F
SIERRA VISTA   MOSUNNY   86  55  35 VRB5      30.04S
DOUGLAS          N/A    N/A N/A N/A MISG      29.98R
SAFFORD        MOSUNNY   95  53  24 W7        29.85F
$$

AZZ020-021-025-026-031-030200-
SOUTHWEST ARIZONA

CITY           SKY/WX    TMP DP  RH WIND       PRES   REMARKS
YUMA           SUNNY    110  52  14 W3        29.64F HX 107
$$

CAZ031-033-041-043-047-048-061-030200-
SOUTHERN CALIFORNIA

CITY           SKY/WX    TMP DP  RH WIND       PRES   REMARKS
DOWNTOWN L.A.  SUNNY     77  65  66 MISG      29.83S
L.A. AIRPORT   MOSUNNY   73  65  75 W13       29.84F
SAN DIEGO      MOSUNNY   74  62  66 W7        29.86F
BURBANK        MOSUNNY   82  63  52 S9        29.83S
ONTARIO        MOSUNNY   88  62  41 SW13      29.83R
RIVERSIDE      SUNNY     87  61  41 W13       29.82S
PALM SPRINGS   SUNNY    109  53  15 NW15      29.67F HX 107
EL CENTRO NAS  SUNNY    111  40   9 CALM      29.63F HX 105
IMPERIAL       SUNNY    110  43  10 W6        29.62F HX 104
BLYTHE         MOSUNNY  108  52  15 S3        29.65F HX 105
NEEDLES        FAIR     110  42  10 W14       29.68F HX 104
$$

NVZ020-UTZ003-030200-
SOUTHERN NEVADA-UTAH

CITY           SKY/WX    TMP DP  RH WIND       PRES   REMARKS
LAS VEGAS      MOSUNNY  101  46  15 E3        29.74F
SALT LAKE CITY CLOUDY    82  48  30 S22G31    29.95F
$$

NMZ009-TXZ055-030200-
NEW MEXICO-WEST TEXAS

CITY           SKY/WX    TMP DP  RH WIND       PRES   REMARKS
ALBUQUERQUE    CLOUDY    76  53  44 S13       30.11F
EL PASO        MOSUNNY   91  55  29 W8        29.93S
$$


........................KEY........................
SKY/WX - SKY CONDITION/WEATHER
TMP    - TEMPERATURE IN FAHRENHEIT
DP     - DEW POINT IN FAHRENHEIT
RH     - RELATIVE HUMIDITY IN PERCENT
WIND   - DIRECTION AND SPEED IN MILES PER HOUR (MPH)
VRB    - VARIABLE WIND DIRECTION
PRES   - MEAN SEA LEVEL PRESSURE IN INCHES OF MERCURY
         F - FALLING PRESSURE   R - RISING PRESSURE
         S - STEADY PRESSURE
VSB    - VISIBILITY IN MILES
HX     - HEAT INDEX IN FAHRENHEIT
WCI    - WIND CHILL INDEX IN FAHRENHEIT
TC     - TEMPERATURE IN CELSIUS WHICH IS ALSO KNOWN AS
         TEMPERATURE IN CENTIGRADE
AFB    - AIR FORCE BASE
         LUKE AFB IS LUKE AIR FORCE BASE
         DAVIS-MONTHAN IS DAVIS-MONTHAN AIR FORCE BASE
NAS    - NAVAL AIR STATION
         EL CENTRO NAS IS EL CENTRO NAVAL AIR STATION
N/A    - NOT AVAILABLE




USA.gov is the U.S. government's official web portal to all federal, state and local government web resources and services.